Location: Chavannes
(47.1090°N, 0.2226°W)
Time: 04:46:44
(UTC+00:00)

Cosmos 1174 - Pass Details

Date: 16 October 2021
Orbit: 373 x 1139 km, 66.1° (Epoch: 03 December)

Event Time Altitude Azimuth Distance (km) Brightness Sun altitude
Rises 18:57:30 0° 225° (SW) 2,440 7.7 -18.8°
Reaches altitude 10° 18:59:44 10° 231° (SW) 1,496 6.6 -19.2°
Maximum altitude 19:02:52 49° 308° (NW) 516 4.0 -19.7°
Enters shadow 19:03:49 34° 1° (N) 663 4.2 -19.9°
